| time (UTC) | temp F | wind direction | speed knots | gust knots | rain 1hr in | rain 24hr in | rain mn in | humidity % | barometer mb |
| 20260505034604 | 67 | 132 | 0.0 | 2.6 | 0.00 | 0.00 | 0.00 | 92 | 1012.2 |
| 20260505033100 | 67 | 139 | 0.9 | 2.6 | 0.00 | 0.00 | 0.00 | 92 | 1012.0 |
| 20260505031607 | 67 | 129 | 0.9 | 2.6 | 0.00 | 0.00 | 0.00 | 92 | 1012.1 |
| 20260505030156 | 67 | 124 | 0.9 | 2.6 | 0.00 | 0.00 | 0.00 | 91 | 1011.9 |
| 20260505024555 | 68 | 116 | 0.9 | 3.5 | 0.00 | 0.00 | 0.00 | 90 | 1011.9 |
| 20260505023101 | 68 | 131 | 1.7 | 3.5 | 0.00 | 0.00 | 0.00 | 90 | 1011.9 |
| 20260505021554 | 68 | 124 | 1.7 | 4.3 | 0.00 | 0.00 | 0.00 | 89 | 1011.6 |
| 20260505020053 | 69 | 130 | 1.7 | 6.1 | 0.00 | 0.00 | 0.00 | 88 | 1011.5 |
| 20260505014639 | 69 | 120 | 2.6 | 7.0 | 0.00 | 0.00 | 0.00 | 87 | 1011.5 |
| 20260505013052 | 69 | 146 | 1.7 | 4.3 | 0.00 | 0.00 | 0.00 | 87 | 1011.5 |
| 20260505011546 | 70 | 155 | 1.7 | 5.2 | 0.00 | 0.00 | 0.00 | 86 | 1011.7 |
| 20260505010046 | 71 | 145 | 2.6 | 7.0 | 0.00 | 0.00 | 0.00 | 84 | 1011.7 |
| 20260505004546 | 71 | 150 | 3.5 | 7.0 | 0.00 | 0.00 | 0.00 | 83 | 1011.6 |
| 20260505003042 | 72 | 139 | 4.3 | 9.6 | 0.00 | 0.00 | 0.00 | 82 | 1011.7 |
| 20260505001549 | 73 | 146 | 6.1 | 10.4 | 0.00 | 0.00 | 0.00 | 80 | 1011.8 |
| 20260505000045 | 73 | 144 | 5.2 | 9.6 | 0.00 | 0.00 | 0.00 | 79 | 1012.3 |
| 20260504234538 | 73 | 154 | 4.3 | 8.7 | 0.00 | 0.00 | 0.00 | 78 | 1012.2 |
| 20260504233036 | 74 | 139 | 4.3 | 10.4 | 0.00 | 0.00 | 0.00 | 77 | 1012.3 |
| 20260504231546 | 75 | 153 | 7.8 | 12.2 | 0.00 | 0.00 | 0.00 | 75 | 1012.4 |
| 20260504230033 | 77 | 159 | 7.0 | 11.3 | 0.00 | 0.00 | 0.00 | 73 | 1012.4 |
| 20260504224536 | 77 | 112 | 5.2 | 10.4 | 0.00 | 0.00 | 0.00 | 72 | 1012.5 |
| 20260504223030 | 77 | 131 | 7.0 | 12.2 | 0.00 | 0.00 | 0.00 | 73 | 1012.7 |
| 20260504221528 | 78 | 202 | 5.2 | 11.3 | 0.00 | 0.00 | 0.00 | 70 | 1012.8 |
| 20260504220032 | 78 | 253 | 6.1 | 10.4 | 0.00 | 0.00 | 0.00 | 70 | 1012.9 |
| 20260504214525 | 77 | 179 | 7.0 | 13.9 | 0.00 | 0.00 | 0.00 | 69 | 1013.0 |
| 20260504213023 | 78 | 153 | 7.0 | 13.0 | 0.00 | 0.00 | 0.00 | 69 | 1013.2 |
| 20260504211524 | 78 | 252 | 7.0 | 13.9 | 0.00 | 0.00 | 0.00 | 67 | 1013.3 |
| 20260504210019 | 79 | 236 | 6.1 | 10.4 | 0.00 | 0.00 | 0.00 | 68 | 1013.6 |
| 20260504204518 | 78 | 242 | 6.1 | 11.3 | 0.00 | 0.00 | 0.00 | 68 | 1013.8 |
| 20260504203022 | 79 | 210 | 7.0 | 13.9 | 0.00 | 0.00 | 0.00 | 69 | 1013.9 |
| 20260504201511 | 78 | 131 | 7.0 | 13.9 | 0.00 | 0.00 | 0.00 | 66 | 1014.3 |
| 20260504200010 | 78 | 195 | 7.0 | 12.2 | 0.00 | 0.00 | 0.00 | 66 | 1014.5 |
| 20260504194517 | 78 | 141 | 6.1 | 11.3 | 0.00 | 0.00 | 0.00 | 68 | 1014.5 |
| 20260504193014 | 78 | 117 | 5.2 | 13.9 | 0.00 | 0.00 | 0.00 | 69 | 1014.6 |
| 20260504191506 | 78 | 139 | 7.0 | 12.2 | 0.00 | 0.00 | 0.00 | 68 | 1014.9 |
| 20260504190003 | 78 | 220 | 5.2 | 13.9 | 0.00 | 0.00 | 0.00 | 67 | 1015.1 |
| 20260504184506 | 78 | 176 | 5.2 | 10.4 | 0.00 | 0.00 | 0.00 | 67 | 1015.5 |
| 20260504183100 | 78 | 187 | 6.1 | 13.9 | 0.00 | 0.00 | 0.00 | 66 | 1015.5 |
| 20260504181603 | 78 | 124 | 6.1 | 13.9 | 0.00 | 0.00 | 0.00 | 66 | 1015.6 |
| 20260504180150 | 77 | 125 | 7.0 | 13.0 | 0.00 | 0.00 | 0.00 | 67 | 1015.8 |
| 20260504174555 | 78 | 193 | 5.2 | 13.9 | 0.00 | 0.00 | 0.00 | 67 | 1015.8 |
| 20260504173103 | 77 | 207 | 5.2 | 12.2 | 0.00 | 0.00 | 0.00 | 68 | 1016.1 |
| 20260504171551 | 76 | 130 | 7.0 | 16.5 | 0.00 | 0.00 | 0.00 | 65 | 1016.3 |
| 20260504120110 | 56 | 146 | 0.0 | 0.0 | 0.00 | 0.00 | 0.00 | 98 | 1016.6 |
| 20260504081514 | 56 | 146 | 0.0 | 0.0 | 0.00 | 0.00 | 0.00 | 94 | 1016.4 |
| 20260504050117 | 57 | 149 | 0.0 | 0.0 | 0.00 | 0.00 | 0.00 | 89 | 1018.2 |
| 20260504044547 | 58 | 149 | 0.0 | 0.0 | 0.00 | 0.00 | 0.00 | 87 | 1018.2 |
| 20260504043047 | 58 | 149 | 0.0 | 0.0 | 0.00 | 0.00 | 0.00 | 86 | 1018.2 |
| 20260504041547 | 60 | 149 | 0.0 | 0.0 | 0.00 | 0.00 | 0.00 | 84 | 1018.1 |
| 20260504040046 | 60 | 149 | 0.0 | 0.0 | 0.00 | 0.00 | 0.00 | 85 | 1018.3 |